North Bend, OR

2:04 PM PDT on April 25, 2018 (GMT -0700)
North Bend Municipal

Weather History for KOTH - July, 2014

Change the Weather History Date:

Thursday, July 10, 2014

  Actual Average Record
Temperature  
Mean Temperature 58 °F 58 °F  
Max Temperature 64 °F 64 °F 75 °F (1946)
Min Temperature 52 °F 53 °F 41 °F (1929)
Degree Days  
Heating Degree Days 7 7  
Month to date heating degree days 37 70  
Since 1 June heating degree days 234 337  
Since 1 July heating degree days 37 70  
Cooling Degree Days 0 0  
Month to date cooling degree days 0 0  
Year to date cooling degree days 12 0  
Since 1 June cooling degree days 0 0  
Growing Degree Days 8 (Base 50)    
Moisture  
Dew Point 55 °F    
Average Humidity 88    
Maximum Humidity 100    
Minimum Humidity 73    
Precipitation  
Precipitation 0.00 in 0.02 in 0.49 in (2016)
Month to date precipitation 0.00 0.22  
Year to date precipitation 22.43 36.34  
Sea Level Pressure  
Sea Level Pressure 29.95 in    
Wind  
Wind Speed 12 mph (North)    
Max Wind Speed 24 mph    
Max Gust Speed 33 mph    
Visibility 10 miles    
Events      
T = Trace of Precipitation, MM = Missing Value Source: NWS Daily Summary

Daily Weather History Graph

Daily Weather History Graph

Search for Another Location

Airport or City:

Astronomy

Jul. 10, 2014 Rise Set
Actual Time 5:46 AM PDT 8:58 PM PDT
Civil Twilight 5:11 AM PDT 9:33 PM PDT
Nautical Twilight 4:26 AM PDT 10:18 PM PDT
Astronomical Twilight 3:31 AM PDT 11:12 PM PDT
Moon 7:15 PM PDT (7/10) 4:04 AM PDT (7/10)
Length of Visible Light 16h 21m
Length of Day
15h 12m
Waxing Gibbous, 96% of the Moon is Illuminated
Jul 10
Waxing Gibbous
Jul 12
Full
Jul 18
Last Quarter
Jul 26
New
Aug 3
First Quarter

Hourly Weather History & Observations

Time (PDT) Temp. Dew Point Humidity Pressure Visibility Wind Dir Wind Speed Gust Speed Precip Events Conditions
12:15 AM 55.4 °F 55.4 °F 100% 29.99 in 10.0 mi North 12.7 mph - N/A   Overcast
12:35 AM 55.4 °F 55.4 °F 100% 29.99 in 10.0 mi North 11.5 mph 17.3 mph N/A   Overcast
1:15 AM 53.6 °F 53.6 °F 100% 29.99 in 10.0 mi North 10.4 mph - N/A   Mostly Cloudy
1:55 AM 53.6 °F 53.6 °F 100% 29.98 in 9.0 mi North 9.2 mph - N/A   Scattered Clouds
2:15 AM 53.6 °F 53.6 °F 100% 29.98 in 10.0 mi North 8.1 mph - N/A   Partly Cloudy
2:35 AM 55.4 °F 55.4 °F 100% 29.98 in 10.0 mi North 8.1 mph - N/A   Clear
2:55 AM 55.4 °F 55.4 °F 100% 29.98 in 10.0 mi North 8.1 mph - N/A   Clear
3:15 AM 53.6 °F 53.6 °F 100% 29.97 in 9.0 mi North 4.6 mph - N/A   Clear
3:35 AM 53.6 °F 53.6 °F 100% 29.97 in 10.0 mi North 3.5 mph - N/A   Clear
3:55 AM 53.6 °F 53.6 °F 100% 29.97 in 10.0 mi Calm Calm - N/A   Scattered Clouds
4:15 AM 53.6 °F 53.6 °F 100% 29.97 in 10.0 mi Calm Calm - N/A   Scattered Clouds
4:35 AM 53.6 °F 53.6 °F 100% 29.97 in 10.0 mi NNE 4.6 mph - N/A   Clear
4:55 AM 53.6 °F 53.6 °F 100% 29.97 in 10.0 mi Calm Calm - N/A   Scattered Clouds
5:15 AM 53.6 °F 53.6 °F 100% 29.96 in 10.0 mi NE 3.5 mph - N/A   Mostly Cloudy
5:35 AM 53.6 °F 53.6 °F 100% 29.97 in 10.0 mi NNE 4.6 mph - N/A   Partly Cloudy
5:55 AM 51.8 °F 51.8 °F 100% 29.97 in 10.0 mi Calm Calm - N/A   Partly Cloudy
6:15 AM 51.8 °F 51.8 °F 100% 29.97 in 10.0 mi Calm Calm - N/A   Clear
6:35 AM 51.8 °F 51.8 °F 100% 29.97 in 8.0 mi Calm Calm - N/A   Partly Cloudy
6:55 AM 53.6 °F 53.6 °F 100% 29.97 in 10.0 mi Calm Calm - N/A   Partly Cloudy
7:15 AM 53.6 °F 53.6 °F 100% 29.98 in 10.0 mi NNE 3.5 mph - N/A   Scattered Clouds
7:35 AM 53.6 °F 53.6 °F 100% 29.98 in 10.0 mi Calm Calm - N/A   Scattered Clouds
7:55 AM 55.4 °F 53.6 °F 94% 29.97 in 10.0 mi ENE 3.5 mph - N/A   Partly Cloudy
8:15 AM 57.2 °F 55.4 °F 94% 29.97 in 10.0 mi ENE 3.5 mph - N/A   Partly Cloudy
8:35 AM 57.2 °F 55.4 °F 94% 29.97 in 10.0 mi NNE 3.5 mph - N/A   Clear
8:55 AM 60.8 °F 55.4 °F 82% 29.97 in 10.0 mi North 8.1 mph - N/A   Clear
9:15 AM 60.8 °F 55.4 °F 82% 29.97 in 10.0 mi North 12.7 mph - N/A   Clear
9:35 AM 60.8 °F 53.6 °F 77% 29.96 in 10.0 mi North 17.3 mph - N/A   Clear
9:55 AM 60.8 °F 53.6 °F 77% 29.96 in 10.0 mi North 18.4 mph 23.0 mph N/A   Clear
10:15 AM 62.6 °F 55.4 °F 77% 29.96 in 10.0 mi North 17.3 mph 21.9 mph N/A   Clear
10:35 AM 62.6 °F 55.4 °F 77% 29.95 in 10.0 mi North 20.7 mph - N/A   Clear
10:55 AM 62.6 °F 55.4 °F 77% 29.95 in 10.0 mi North 20.7 mph 26.5 mph N/A   Clear
11:15 AM 62.6 °F 55.4 °F 77% 29.95 in 10.0 mi North 19.6 mph 26.5 mph N/A   Clear
11:35 AM 62.6 °F 55.4 °F 77% 29.95 in 10.0 mi North 17.3 mph 26.5 mph N/A   Clear
11:55 AM 62.6 °F 55.4 °F 77% 29.95 in 10.0 mi North 20.7 mph 26.5 mph N/A   Clear
12:35 PM 62.6 °F 55.4 °F 77% 29.94 in 10.0 mi North 23.0 mph 29.9 mph N/A   Clear
12:55 PM 64.4 °F 55.4 °F 73% 29.94 in 10.0 mi North 24.2 mph 31.1 mph N/A   Clear
1:35 PM 64.4 °F 55.4 °F 73% 29.93 in 10.0 mi North 25.3 mph 32.2 mph N/A   Clear
1:55 PM 64.4 °F 55.4 °F 73% 29.93 in 10.0 mi North 23.0 mph 33.4 mph N/A   Clear
2:15 PM 64.4 °F 55.4 °F 73% 29.93 in 10.0 mi North 21.9 mph 31.1 mph N/A   Clear
2:35 PM 64.4 °F 55.4 °F 73% 29.93 in 10.0 mi North 20.7 mph 29.9 mph N/A   Clear
2:55 PM 64.4 °F 55.4 °F 73% 29.93 in 10.0 mi North 20.7 mph 28.8 mph N/A   Clear
3:15 PM 64.4 °F 55.4 °F 73% 29.93 in 10.0 mi North 21.9 mph 28.8 mph N/A   Clear
3:35 PM 64.4 °F 55.4 °F 73% 29.93 in 10.0 mi North 21.9 mph 32.2 mph N/A   Clear
3:55 PM 64.4 °F 55.4 °F 73% 29.92 in 10.0 mi North 21.9 mph 29.9 mph N/A   Clear
4:15 PM 64.4 °F 55.4 °F 73% 29.93 in 10.0 mi North 20.7 mph 28.8 mph N/A   Clear
4:35 PM 64.4 °F 55.4 °F 73% 29.93 in 10.0 mi North 19.6 mph 27.6 mph N/A   Clear
4:55 PM 64.4 °F 55.4 °F 73% 29.93 in 10.0 mi North 20.7 mph 29.9 mph N/A   Clear
5:15 PM 62.6 °F 55.4 °F 77% 29.92 in 10.0 mi North 20.7 mph 32.2 mph N/A   Clear
5:35 PM 62.6 °F 55.4 °F 77% 29.92 in 10.0 mi North 20.7 mph 26.5 mph N/A   Clear
5:55 PM 62.6 °F 57.2 °F 82% 29.92 in 10.0 mi North 19.6 mph 26.5 mph N/A   Clear
6:15 PM 62.6 °F 57.2 °F 82% 29.92 in 10.0 mi North 17.3 mph 26.5 mph N/A   Clear
6:35 PM 62.6 °F 57.2 °F 82% 29.92 in 10.0 mi North 16.1 mph 23.0 mph N/A   Clear
6:55 PM 62.6 °F 55.4 °F 77% 29.92 in 10.0 mi NNW 18.4 mph 25.3 mph N/A   Clear
7:15 PM 62.6 °F 57.2 °F 82% 29.93 in 10.0 mi North 13.8 mph 19.6 mph N/A   Clear
7:35 PM 60.8 °F 57.2 °F 88% 29.93 in 10.0 mi North 13.8 mph - N/A   Clear
7:55 PM 60.8 °F 55.4 °F 82% 29.93 in 10.0 mi NNW 12.7 mph 19.6 mph N/A   Clear
8:15 PM 60.8 °F 55.4 °F 82% 29.94 in 10.0 mi NNW 11.5 mph - N/A   Clear
8:35 PM 59.0 °F 55.4 °F 88% 29.94 in 10.0 mi NNW 11.5 mph - N/A   Clear
8:55 PM 57.2 °F 55.4 °F 94% 29.94 in 10.0 mi NNW 12.7 mph 17.3 mph N/A   Clear
9:15 PM 57.2 °F 57.2 °F 100% 29.95 in 10.0 mi North 8.1 mph - N/A   Mostly Cloudy
9:35 PM 59.0 °F 57.2 °F 94% 29.95 in 10.0 mi North 12.7 mph - N/A   Overcast
9:55 PM 59.0 °F 57.2 °F 94% 29.96 in 10.0 mi North 5.8 mph - N/A   Overcast
10:15 PM 57.2 °F 57.2 °F 100% 29.96 in 10.0 mi North 5.8 mph - N/A   Overcast
10:35 PM 57.2 °F 57.2 °F 100% 29.96 in 10.0 mi NW 4.6 mph - N/A   Overcast
10:55 PM 57.2 °F 57.2 °F 100% 29.96 in 9.0 mi WNW 4.6 mph - N/A   Overcast
11:15 PM 57.2 °F 57.2 °F 100% 29.96 in 7.0 mi NW 4.6 mph - N/A   Overcast
11:35 PM 57.2 °F 57.2 °F 100% 29.96 in 7.0 mi WNW 4.6 mph - N/A   Overcast
11:55 PM 57.2 °F 57.2 °F 100% 29.96 in 7.0 mi NW 4.6 mph - N/A   Overcast